Terminal Aerodrome Forecast
Issued by NWS

Home | Current Version | Previous Version | Text Only | Print | Product List | Glossary Off
Versions: 1 2 3 4 5 6 7 8 9 10 11 12 13 14 15 16 17 18 19 20 21 22 23 24 25 26 27 28 29 30 31 32 33 34 35

000
FTUS45 KGGW 011100
TAFOLF
TAF
KOLF 011121Z 0112/0212 VRB06KT 5SM BR BKN015
     FM011500 VRB05KT P6SM SCT100
     FM011800 VRB04KT P6SM VCTS BKN060CB
     FM020000 34011KT P6SM -SHRA BKN080
     FM020600 VRB04KT P6SM BKN150=

USA.gov is the U.S. government's official web portal to all federal, state and local government web resources and services.